Theta_e
317 319 319 320 321 322 323 324 325 324 325 326 325 325 325 323 321 310 303 312 319 328 323 310 309 309 310 307 308 309 297 293 296 302 302 304 304 307 310 310 310 316 314 315 325
315 316 317 318 319 320 321 324 324 324 324 325 325 324 324 322 310 303 312 323 326 328 308 304 302 306 305 305 302 301 293 295 303 305 304 305 304 306 305 307 311 316 322 325 325
315 315 316 316 317 318 320 322 323 323 323 323 324 323 322 318 301 299 324 325 325 325 319 313 307 304 303 302 300 300 295 300 304 308 308 307 303 307 305 302 310 314 319 323 323
314 314 314 314 315 317 319 320 322 323 322 323 322 322 321 310 284 314 323 322 325 322 318 310 304 299 300 299 302 295 301 302 305 308 308 306 307 305 306 307 313 319 323 323 323
313 313 313 313 313 314 317 319 321 321 322 322 322 321 310 299 298 312 320 319 319 319 311 308 300 300 298 299 300 298 299 302 305 306 305 308 305 304 304 309 316 320 322 323 322
313 314 313 312 313 314 313 317 318 320 321 321 321 320 304 293 307 314 311 313 316 316 310 307 303 305 300 301 297 300 301 301 304 304 305 305 304 306 306 310 315 319 319 321 322
313 313 312 312 311 312 312 314 317 319 320 321 320 315 303 296 306 309 311 309 313 316 311 308 308 308 305 301 304 302 297 299 301 303 303 306 301 303 308 309 311 315 318 320 321
313 313 312 312 311 311 311 312 316 318 318 320 320 312 297 309 309 308 309 307 311 313 316 316 315 311 307 307 303 298 296 291 298 301 303 302 290 304 310 308 307 309 309 316 319
312 311 311 311 311 311 311 310 314 317 318 317 314 307 297 311 303 307 308 304 307 310 315 317 314 306 305 298 295 294 287 290 294 300 301 299 292 299 304 306 306 306 307 309 314
312 310 310 310 310 310 310 310 313 314 314 314 310 300 303 298 303 305 304 306 303 309 309 307 304 297 297 293 285 289 290 291 290 296 297 296 295 299 302 301 302 302 301 301 311
312 310 310 309 310 310 307 300 302 299 304 298 295 299 303 304 306 301 304 303 302 304 295 300 292 289 294 295 294 295 292 290 293 295 295 294 295 298 301 301 300 301 301 302 303
312 310 310 309 309 307 305 296 302 301 294 302 301 302 306 305 298 300 305 297 296 293 294 292 288 293 296 298 295 293 289 289 293 294 293 289 289 293 294 298 300 301 302 304 304
311 310 310 310 309 305 300 300 310 307 291 294 301 300 302 304 298 296 300 296 292 291 290 288 290 296 293 292 292 292 290 289 289 292 291 288 286 289 293 294 297 299 300 301 302
310 311 309 309 302 301 298 303 310 308 285 288 294 298 302 303 296 302 300 296 292 290 289 288 293 290 290 290 292 288 294 293 291 287 282 288 279 286 289 290 292 295 297 296 296
310 311 309 308 301 297 300 305 307 303 275 290 294 306 302 296 298 297 301 296 289 288 288 285 287 288 288 290 293 288 292 291 290 286 285 283 281 284 289 287 289 292 292 291 293
310 310 309 304 301 303 305 304 303 283 274 287 294 293 293 296 296 298 296 297 296 289 288 287 292 289 289 291 292 292 289 288 286 283 274 282 282 281 285 288 287 288 289 293 292
309 309 306 305 296 305 304 295 282 277 287 284 288 293 292 289 292 293 289 288 284 278 275 284 286 290 292 288 291 290 283 274 272 271 273 281 280 283 287 289 289 290 292 293 292
308 308 305 303 304 303 298 286 275 282 283 290 291 291 288 288 288 291 288 285 288 285 280 275 274 286 290 288 286 286 283 275 269 273 276 280 277 282 289 291 292 292 293 292 293
307 298 301 300 304 300 288 277 276 282 287 288 289 284 286 289 288 288 286 286 288 288 281 278 280 287 290 290 290 286 281 285 278 270 274 277 281 287 289 289 290 290 291 291 292
295 294 295 303 302 295 283 277 281 288 288 288 283 284 280 286 286 286 287 290 289 291 289 286 279 285 288 290 289 286 288 279 277 268 268 275 277 279 285 287 288 289 289 290 292
292 286 294 303 298 287 276 274 283 289 289 285 285 284 283 285 286 286 286 290 293 290 291 288 283 281 286 284 282 285 282 283 282 279 274 272 276 284 285 287 287 288 290 291 293
289 281 294 298 286 285 275 278 288 288 290 287 287 286 284 286 285 285 284 288 294 294 287 289 284 275 280 286 289 287 285 285 277 277 278 278 277 286 287 288 289 289 290 291 293
285 285 295 293 276 281 282 282 285 285 287 287 285 288 288 284 282 287 287 292 293 293 290 291 284 275 278 282 285 284 286 287 285 282 279 275 277 287 287 287 288 289 288 291 291
286 282 286 291 282 277 282 279 279 287 287 288 287 288 287 284 288 285 287 290 292 294 295 294 286 282 276 279 284 281 284 286 285 278 278 279 279 284 286 287 287 287 289 290 291
285 281 281 280 283 276 278 280 279 277 286 288 282 286 284 279 284 283 287 288 291 294 292 290 280 284 285 286 285 283 284 285 284 285 280 282 282 285 287 286 287 289 290 290 291
284 283 285 279 282 280 282 276 279 282 283 282 282 285 286 280 285 281 285 286 286 289 289 289 278 283 277 285 284 282 284 283 284 284 284 284 284 288 289 289 288 290 289 290 290
291 292 288 285 278 281 280 282 280 284 284 286 285 284 282 285 290 289 289 289 290 287 286 284 280 272 269 280 281 276 280 282 284 285 285 280 286 287 287 288 288 290 291 291 292
Wind_Speed
15 16 15 16 16 16 15 14 14 12 10 10 9 6 8 11 12 5 8 7 3 5 8 7 4 8 4 3 3 2 3 3 4 5 6 4 5 3 0 7 4 3 4 7 15
16 16 14 16 17 17 16 16 14 13 11 10 9 6 8 9 6 10 11 7 4 0 2 4 5 7 3 4 2 3 3 7 1 2 3 5 3 5 4 4 4 6 8 15 13
16 15 15 17 18 17 17 16 15 13 12 10 8 5 4 6 5 7 4 12 5 3 2 2 4 1 4 4 4 5 6 1 1 2 2 6 1 2 6 2 6 10 12 12 8
16 15 15 15 17 18 17 16 15 14 13 10 9 6 1 1 7 1 3 5 4 4 4 5 5 3 5 7 6 4 7 3 1 1 2 1 7 4 5 4 1 15 18 11 12
14 15 15 16 16 17 18 18 16 15 15 11 10 7 3 4 9 4 4 4 3 3 5 6 7 5 5 5 5 5 3 3 3 1 2 2 3 1 2 2 5 16 16 14 12
13 13 15 16 17 19 19 20 19 16 17 14 12 9 3 9 7 7 5 2 4 5 5 5 5 3 6 6 6 5 4 4 6 3 2 2 2 2 3 6 9 14 11 12 13
12 14 15 15 15 17 18 20 21 15 14 15 15 9 7 14 2 4 4 3 3 1 3 6 3 4 2 2 3 4 1 2 5 5 3 4 4 8 2 7 9 11 11 13 12
12 14 14 14 16 18 19 18 21 16 11 15 18 11 8 9 15 7 4 5 2 4 2 3 2 2 4 5 2 5 3 2 5 9 5 6 6 8 9 7 8 7 8 9 12
11 12 13 16 17 19 19 17 22 20 14 6 10 6 7 3 7 14 8 5 5 5 3 2 0 5 1 3 2 2 3 5 6 9 4 5 3 6 4 7 8 8 7 7 8
11 11 13 15 17 18 20 20 21 16 9 5 5 5 6 6 5 7 6 7 4 5 2 3 3 3 2 4 8 6 4 4 7 5 5 5 7 3 2 4 7 7 6 6 7
11 11 13 14 14 14 10 9 7 5 6 5 1 5 12 6 5 7 6 4 3 4 6 4 4 9 9 9 5 5 4 3 2 2 4 5 4 8 7 5 6 6 5 5 7
14 12 12 13 13 6 7 9 3 5 4 5 6 17 13 3 4 7 10 6 6 6 5 4 8 7 6 6 7 4 4 4 3 2 4 1 5 7 5 5 7 8 7 7 5
14 10 12 14 6 5 9 11 9 6 5 3 7 10 7 5 6 12 13 6 4 7 8 7 4 11 7 6 8 6 7 5 3 2 3 2 5 6 7 5 8 6 6 5 9
13 11 10 4 3 3 7 15 10 6 3 5 7 6 5 5 3 10 8 7 5 12 6 5 5 7 4 5 5 5 5 3 5 4 3 2 6 5 4 8 7 10 10 8 7
12 12 7 5 4 3 3 12 11 3 5 11 7 7 8 4 1 5 4 2 8 6 7 8 5 6 4 5 5 4 3 6 3 4 4 4 2 8 6 6 7 10 8 4 4
11 11 2 1 2 4 2 7 2 2 4 5 6 6 7 6 3 5 4 0 3 3 6 2 3 1 4 2 6 6 7 9 6 4 2 8 7 6 4 5 4 3 4 6 5
10 10 2 1 3 1 2 4 1 4 1 2 3 8 9 3 7 9 7 6 6 7 2 3 2 3 0 8 4 5 6 3 4 3 6 2 5 9 7 2 3 8 6 4 4
11 7 2 3 3 1 2 4 3 3 3 4 3 10 4 5 1 9 9 7 4 4 5 6 3 6 2 5 8 7 6 7 8 5 4 2 6 7 7 7 5 7 6 5 6
10 3 0 2 3 2 4 3 3 2 6 7 5 2 3 3 4 7 6 8 7 7 6 5 3 1 3 1 8 5 4 4 7 3 4 4 5 10 4 3 6 5 6 6 5
2 3 3 5 5 4 3 3 3 4 4 2 2 3 7 8 6 5 9 4 4 8 3 1 5 3 1 2 1 4 5 4 3 4 2 4 3 6 4 4 6 6 5 5 5
2 2 4 7 5 4 3 6 3 5 2 3 3 4 0 5 4 6 9 3 4 3 8 4 5 1 3 5 7 2 2 2 5 5 6 3 6 5 2 8 9 6 5 5 5
3 1 3 4 2 2 4 5 1 3 3 2 1 3 2 5 6 5 8 4 11 6 5 3 5 4 7 3 4 2 5 5 5 4 2 3 6 4 7 9 8 6 6 4 5
2 3 1 4 4 6 3 1 3 2 1 3 3 3 4 4 1 4 5 3 4 9 13 5 0 3 4 5 3 4 4 2 4 3 3 6 6 2 6 6 5 7 5 5 5
4 3 2 3 2 7 8 6 4 3 3 1 3 3 2 4 5 2 3 4 3 7 7 3 4 4 5 4 4 5 6 5 5 2 3 6 3 5 2 4 5 3 7 7 7
3 5 6 7 9 2 4 8 7 6 5 3 4 3 3 2 3 4 2 2 3 5 4 5 5 5 6 1 4 2 3 4 8 11 6 8 7 8 7 3 3 3 4 6 7
6 5 1 2 8 11 9 8 9 4 8 5 5 0 4 4 4 4 2 4 5 3 5 2 2 3 2 6 4 2 7 8 5 1 7 7 13 6 5 6 7 8 3 4 4
4 3 4 7 4 10 12 15 9 8 6 6 7 3 2 5 8 1 3 6 4 6 5 6 6 4 4 2 7 2 13 8 5 6 5 6 11 2 6 7 5 4 5 7 7
Wind_Direction
320 315 313 308 302 304 299 282 269 264 266 275 277 283 311 324 321 298 247 238 213 353 331 308 318 311 267 264 261 354 85 247 270 6 304 214 135 57 260 118 62 35 149 168 152
313 320 317 314 308 296 297 295 273 254 252 258 267 289 307 326 293 258 241 224 194 195 354 339 323 348 297 230 249 141 191 206 211 101 322 289 107 136 104 129 60 63 67 125 139
316 316 310 313 306 299 291 291 283 255 244 247 248 250 298 328 299 245 13 223 173 185 174 296 303 287 260 199 218 198 207 209 281 131 71 316 245 180 113 225 182 160 148 144 143
316 311 306 313 313 302 292 287 284 264 243 232 233 218 183 278 240 141 148 130 170 191 196 203 204 202 222 219 209 213 243 229 293 26 76 19 284 171 162 188 243 168 159 148 162
313 300 300 294 302 314 302 284 280 273 243 228 219 184 147 215 249 227 184 181 176 179 198 205 200 189 200 222 227 197 250 192 154 227 248 51 319 251 238 127 50 149 157 163 167
304 300 294 299 296 296 305 296 279 273 242 217 209 174 183 235 248 169 201 192 250 193 206 206 210 260 255 247 170 194 211 231 184 213 256 159 287 345 261 140 98 142 160 168 175
296 296 287 293 294 289 295 297 286 273 249 220 211 179 222 222 203 177 177 229 241 214 269 212 233 240 223 259 196 134 94 287 202 187 246 153 290 229 186 135 151 162 175 182 188
287 297 285 294 302 302 290 302 291 254 257 224 213 199 237 217 238 241 199 264 247 276 242 303 109 275 254 302 43 120 88 195 240 167 215 150 252 232 208 163 175 193 194 190 196
287 304 297 294 293 298 296 304 292 260 243 279 221 201 228 197 194 203 182 218 196 245 244 288 220 212 245 167 108 214 176 195 296 182 142 181 224 245 163 180 197 189 212 221 202
282 288 300 304 294 301 306 307 284 253 235 206 286 160 251 211 166 171 190 205 184 174 172 190 208 178 174 160 192 174 181 206 203 219 159 184 245 281 298 178 207 212 212 220 229
287 278 292 305 300 312 339 320 210 218 256 152 56 245 284 204 115 160 167 165 207 155 172 209 155 204 191 194 188 186 158 187 178 288 133 206 226 259 256 256 225 238 254 233 216
294 287 279 290 311 337 302 246 197 158 131 145 194 272 288 169 128 170 135 156 169 180 177 139 228 214 215 210 213 230 169 182 26 354 104 34 278 269 282 247 219 224 236 244 263
323 288 283 283 307 288 284 276 149 97 87 303 199 231 271 300 170 182 158 154 161 169 193 169 238 199 195 182 187 188 178 208 120 187 32 113 295 255 254 231 241 245 222 225 232
326 303 293 312 287 319 301 333 319 68 166 200 192 208 230 331 212 162 177 151 182 195 161 230 250 176 187 183 145 180 189 171 116 115 210 177 275 289 241 265 236 247 251 242 253
321 315 297 211 296 325 270 313 302 101 183 151 155 142 160 209 161 182 129 273 170 182 136 214 167 140 158 187 143 195 125 132 115 119 81 311 25 271 275 262 237 239 251 283 202
327 325 291 314 294 277 229 305 186 123 231 171 145 176 135 182 202 134 133 75 127 121 61 135 300 110 176 68 136 139 81 46 48 78 34 220 166 273 239 194 223 99 116 118 89
333 324 205 159 291 264 333 42 342 288 5 165 179 155 160 158 163 154 148 162 157 110 62 0 341 329 38 87 27 104 86 34 15 9 214 338 151 250 263 270 127 154 140 108 58
332 333 270 222 154 166 16 40 346 329 265 203 117 133 166 151 55 165 144 182 254 123 126 139 309 180 189 160 174 174 151 156 180 191 215 328 219 247 235 169 132 118 127 74 49
335 344 204 260 148 45 48 59 259 287 326 336 100 109 182 160 124 151 190 169 180 180 131 135 226 149 139 76 142 217 206 177 101 24 73 216 272 315 238 119 103 95 98 81 68
355 337 254 164 123 63 65 229 194 292 338 114 352 162 190 172 166 188 156 229 185 187 130 159 109 9 170 110 188 152 170 72 1 119 212 281 244 221 299 69 108 91 68 57 55
73 17 279 121 83 63 202 226 281 264 271 358 118 325 60 177 170 167 157 315 210 221 145 187 111 295 88 216 178 171 193 148 127 160 157 154 257 226 155 143 134 125 108 84 68
136 202 259 108 118 180 180 194 198 312 300 271 172 150 134 263 175 173 176 206 199 186 173 157 108 153 204 249 186 204 195 158 130 239 174 138 265 141 133 134 137 158 141 133 141
173 217 324 105 179 203 175 214 216 235 324 33 296 164 200 283 14 203 166 245 165 166 156 185 52 86 17 355 358 203 217 210 98 71 209 133 250 117 143 112 154 151 171 185 175
147 195 254 206 173 163 177 198 212 252 269 248 297 308 137 255 231 282 147 236 182 164 118 106 124 189 168 175 136 181 200 181 137 130 179 221 243 255 349 7 20 126 186 216 234
219 205 187 187 207 149 132 177 161 186 206 168 321 202 79 320 286 279 162 15 32 173 124 138 159 161 128 84 87 96 61 197 196 220 166 249 196 255 301 333 260 302 315 305 288
170 174 154 157 137 169 186 203 176 173 160 202 202 254 177 159 84 315 282 193 195 225 158 154 170 112 327 164 125 64 333 300 266 306 243 258 271 206 267 294 309 296 344 302 278
176 218 135 164 140 177 205 205 197 136 236 176 187 190 230 184 140 165 325 303 229 173 159 142 138 95 250 327 98 12 215 231 236 200 199 229 249 220 252 265 262 273 278 274 282